sat.trackr.live / text

‹ back to catalog

HULIANWANG DIGUI-119

NORAD 67059 · 2025-295A

PAYLOAD ACTIVE UNKNOWN

§ Identity

Operator
Country
PRC
Launch date
2025-12-11
Launch site
WSC
Launch vehicle
Mass (kg)
RCS (m²)

External: N2YO · Heavens-Above · Gunter

§ Orbital elements

Epoch: 2026-05-25T03:38:26.243232Z

Period
108.33 min
Inclination
50.0025°
Eccentricity
0.0000857
Mean motion
13.29327429 rev/d
Perigee alt
1,148.7 km
Apogee alt
1,149.9 km
Semi-major
7,527.4 km
B*
8.8359e-5
RAAN
108.3998°
Arg perigee
352.6069°
Mean anomaly
7.4790°
Rev number
2,243

§ Raw data

HULIANWANG DIGUI-1191 67059U 25295A   26145.15169263 -.00000083  00000+0  88359-4 0  99992 67059  50.0025 108.3998 0000857 352.6069   7.4790 13.29327429 22430

JSON: /api/v1/satellites/67059 · /tle

For live sub-satellite position, see the globe view (requires WebGL).

§ Visibility from observer

Set your observer location to see the next 7 days of passes ≥ 10°. The values pass through the URL so the page stays shareable.

No JS? Fill the form by hand. The geolocation button needs JavaScript.